Date String (YYYY-MM-DD hh:mm:ss) UTC,Instrument flags,absolute air pressure of the measurement (hPa),sample flow rate (lpm),inlet stack bypass flow (lpm),air temperature of the measurement (°C),ambient temperature measured by the external sensor (°C),aerosol sample conditioner tube jacket temperature (°C),OPC LED temperature (°C),internal box temperature (°C),relative humidity of the measurement (%),span deviation,mass concentration of particles derived from Lorenz-Mie calculation of OPC scattering (μg/m³),mass concentration of particles derived from Lorenz-Mie calculation of OPC scattering (μg/m³),mass concentration of particles derived from Lorenz-Mie calculation of OPC scattering (μg/m³)
DateTimeUTC,F1_M11,P_M11,Q1_M11,Q2_M11,T1_M11,T2_M11,T3_M11,T4_M11,T5_M11,U1_M11,ZSPAN_M11,X2_M11,X0_M11,X1_M11
2024-01-21 15:00:00,SystemResetWarning,0821.3,5.00,000.00,019.4,018.8,000.0,027.7,020.7,17.0,0000.0,0002.73,0004.00,0002.21
2024-01-21 15:01:00,SystemResetWarning,0821.4,5.00,000.00,019.4,018.8,000.0,027.7,020.8,17.0,0000.0,0003.17,0004.83,0002.64
2024-01-21 15:02:00,SystemResetWarning,0821.7,5.00,000.00,019.4,018.8,000.0,027.7,020.8,17.0,0000.0,0003.46,0005.84,0003.04
2024-01-21 15:03:00,SystemResetWarning,0822.0,5.00,000.00,019.4,018.9,000.0,027.8,020.7,17.0,0000.0,0003.79,0006.94,0003.34
2024-01-21 15:04:00,SystemResetWarning,0822.0,5.00,000.00,019.4,018.9,000.0,027.8,020.7,17.0,0000.0,0004.13,0007.88,0003.61
2024-01-21 15:05:00,SystemResetWarning,0822.0,5.01,000.00,019.4,018.9,000.0,027.8,020.7,17.0,0000.0,0004.42,0008.39,0003.88
2024-01-21 15:06:00,SystemResetWarning,0822.0,5.01,000.00,019.4,018.9,000.0,027.8,020.7,16.9,0000.0,0004.67,0008.73,0004.11
2024-01-21 15:07:00,SystemResetWarning,0821.7,5.00,000.00,019.5,018.9,000.0,027.8,020.8,16.9,0000.0,0004.73,0008.86,0004.17
2024-01-21 15:08:00,SystemResetWarning,0821.5,4.99,000.00,019.5,018.9,000.0,027.8,020.8,16.9,0000.0,0004.70,0009.02,0004.10
2024-01-21 15:09:00,SystemResetWarning,0821.6,4.99,000.00,019.5,018.9,000.0,027.8,020.8,16.9,0000.0,0004.70,0009.08,0004.10
2024-01-21 15:10:00,SystemResetWarning,0821.6,5.00,000.00,019.5,018.9,000.0,027.8,020.8,17.0,0000.0,0004.61,0009.17,0004.04
2024-01-21 15:11:00,SystemResetWarning,0821.7,5.01,000.00,019.5,018.9,000.0,027.8,020.8,17.1,0000.0,0004.47,0008.99,0003.91
2024-01-21 15:12:00,SystemResetWarning,0821.7,5.00,000.00,019.5,018.9,000.0,027.8,020.8,17.0,0000.0,0004.30,0008.99,0003.75
2024-01-21 15:13:00,SystemResetWarning,0821.7,5.00,000.00,019.5,018.9,000.0,027.8,020.8,17.0,0000.0,0004.13,0008.89,0003.62
2024-01-21 15:14:00,SystemResetWarning,0821.7,4.99,000.00,019.5,018.9,000.0,027.8,020.8,17.1,0000.0,0003.95,0009.11,0003.49
2024-01-21 15:15:00,SystemResetWarning,0821.6,4.99,000.00,019.5,018.9,000.0,027.8,020.8,17.1,0000.0,0003.70,0008.87,0003.28
2024-01-21 15:16:00,SystemResetWarning,0821.7,5.01,000.00,019.5,018.9,000.0,027.8,020.8,17.2,0000.0,0003.46,0008.46,0003.02
2024-01-21 15:17:00,SystemResetWarning,0821.7,5.01,000.00,019.5,018.9,000.0,027.8,020.8,17.1,0000.0,0003.26,0008.29,0002.65
2024-01-21 15:18:00,SystemResetWarning,0821.7,5.00,000.00,019.5,018.9,000.0,027.8,020.8,17.1,0000.0,0003.08,0008.05,0002.37
2024-01-21 15:19:00,SystemResetWarning,0821.7,5.00,000.00,019.5,018.9,000.0,027.8,020.8,17.2,0000.0,0002.82,0007.60,0002.19
2024-01-21 15:20:00,SystemResetWarning,0821.7,4.99,000.00,019.5,018.9,000.0,027.8,020.8,17.2,0000.0,0002.58,0007.45,0001.95
2024-01-21 15:21:00,SystemResetWarning,0821.7,4.99,000.00,019.5,018.9,000.0,027.8,020.8,17.2,0000.0,0002.44,0007.04,0001.83
2024-01-21 15:22:00,SystemResetWarning,0821.8,5.01,000.00,019.5,018.9,000.0,027.8,020.8,17.1,0000.0,0002.34,0006.74,0001.77
2024-01-21 15:23:00,SystemResetWarning,0821.8,5.01,000.00,019.5,018.9,000.0,027.9,020.9,17.1,0000.0,0002.20,0006.22,0001.69
2024-01-21 15:24:00,SystemResetWarning,0821.7,5.00,000.00,019.5,018.9,000.0,027.9,020.9,17.1,0000.0,0002.04,0005.44,0001.54
2024-01-21 15:25:00,SystemResetWarning,0821.8,4.99,000.00,019.5,019.0,000.0,027.9,020.9,16.9,0000.0,0001.87,0004.55,0001.36
2024-01-21 15:26:00,SystemResetWarning,0821.8,4.99,000.00,019.6,019.0,000.0,027.9,020.9,17.0,0000.0,0001.72,0003.42,0001.26
2024-01-21 15:27:00,SystemResetWarning,0821.8,5.00,000.00,019.6,019.0,000.0,027.9,020.9,17.0,0000.0,0001.61,0003.06,0001.21
2024-01-21 15:28:00,SystemResetWarning,0821.8,5.00,000.00,019.6,019.0,000.0,027.9,020.9,17.1,0000.0,0001.50,0002.56,0001.16
2024-01-21 15:29:00,SystemResetWarning,0821.8,5.00,000.00,019.6,019.0,000.0,027.9,020.9,17.1,0000.0,0001.45,0002.46,0001.12
2024-01-21 15:30:00,SystemResetWarning,0821.8,5.01,000.00,019.6,019.0,000.0,027.9,020.9,17.0,0000.0,0001.42,0002.41,0001.10
2024-01-21 15:31:00,SystemResetWarning,0821.8,5.01,000.00,019.6,019.0,000.0,027.9,020.9,17.0,0000.0,0001.32,0002.15,0001.06
2024-01-21 15:32:00,SystemResetWarning,0821.8,5.00,000.00,019.6,019.0,000.0,027.9,020.9,17.1,0000.0,0001.26,0002.05,0001.03
2024-01-21 15:33:00,SystemResetWarning,0821.8,5.00,000.00,019.6,019.0,000.0,027.9,020.9,17.1,0000.0,0001.29,0002.15,0001.06
2024-01-21 15:34:00,SystemResetWarning,0821.8,5.00,000.00,019.6,019.0,000.0,027.9,020.9,17.0,0000.0,0001.32,0002.23,0001.07
2024-01-21 15:35:00,SystemResetWarning,0821.8,5.00,000.00,019.6,019.0,000.0,027.9,021.0,17.1,0000.0,0001.33,0002.13,0001.08
2024-01-21 15:36:00,SystemResetWarning,0821.8,5.00,000.00,019.6,019.0,000.0,027.9,021.0,17.2,0000.0,0001.35,0002.23,0001.09
2024-01-21 15:37:00,SystemResetWarning,0821.8,5.00,000.00,019.6,019.0,000.0,027.9,021.0,17.0,0000.0,0001.42,0002.46,0001.10
2024-01-21 15:38:00,SystemResetWarning,0821.8,5.00,000.00,019.6,019.0,000.0,027.9,021.0,17.0,0000.0,0001.44,0002.48,0001.10
2024-01-21 15:39:00,SystemResetWarning,0821.8,5.00,000.00,019.6,019.0,000.0,027.9,021.0,17.3,0000.0,0001.45,0002.49,0001.11
2024-01-21 15:40:00,SystemResetWarning,0821.8,4.99,000.00,019.6,019.0,000.0,028.0,021.0,17.4,0000.0,0001.46,0003.29,0001.13
2024-01-21 15:41:00,SystemResetWarning,0821.8,5.01,000.00,019.7,019.0,000.0,028.0,021.0,17.2,0000.0,0001.48,0003.58,0001.16
2024-01-21 15:42:00,SystemResetWarning,0821.8,5.01,000.00,019.7,019.0,000.0,028.0,021.0,17.3,0000.0,0001.51,0003.62,0001.18
2024-01-21 15:43:00,SystemResetWarning,0821.8,5.01,000.00,019.7,019.0,000.0,028.0,021.0,17.3,0000.0,0001.51,0003.64,0001.17
2024-01-21 15:44:00,SystemResetWarning,0821.9,5.01,000.00,019.7,019.1,000.0,028.0,021.0,17.4,0000.0,0001.47,0003.76,0001.13
2024-01-21 15:45:00,SystemResetWarning,0822.0,4.99,000.00,019.7,019.1,000.0,028.0,021.0,17.5,0000.0,0001.45,0004.31,0001.11
2024-01-21 15:46:00,SystemResetWarning,0822.0,5.00,000.00,019.7,019.1,000.0,028.0,021.0,17.4,0000.0,0001.40,0004.29,0001.07
2024-01-21 15:47:00,SystemResetWarning,0822.0,4.99,000.00,019.7,019.1,000.0,028.0,021.0,17.5,0000.0,0001.35,0004.11,0001.05
2024-01-21 15:48:00,SystemResetWarning,0822.0,5.00,000.00,019.7,019.1,000.0,028.0,021.0,17.7,0000.0,0001.25,0003.80,0001.02
2024-01-21 15:49:00,SystemResetWarning,0822.0,5.01,000.00,019.7,019.1,000.0,028.0,021.0,17.6,0000.0,0001.22,0003.77,0001.01
2024-01-21 15:50:00,SystemResetWarning,0821.9,5.01,000.00,019.7,019.1,000.0,028.0,021.0,17.7,0000.0,0001.24,0003.82,0001.00
2024-01-21 15:51:00,SystemResetWarning,0821.9,5.01,000.00,019.7,019.1,000.0,028.0,021.0,17.7,0000.0,0001.21,0003.07,0000.96
2024-01-21 15:52:00,SystemResetWarning,0822.0,5.00,000.00,019.7,019.1,000.0,028.0,021.0,17.7,0000.0,0001.16,0002.59,0000.92
2024-01-21 15:53:00,SystemResetWarning,0822.0,5.00,000.00,019.7,019.1,000.0,028.0,021.0,17.5,0000.0,0001.10,0002.52,0000.87
2024-01-21 15:54:00,SystemResetWarning,0822.0,5.00,000.00,019.7,019.1,000.0,028.0,021.0,17.4,0000.0,0001.04,0002.45,0000.83
2024-01-21 15:55:00,SystemResetWarning,0822.1,5.00,000.00,019.7,019.1,000.0,028.0,021.0,17.5,0000.0,0001.00,0002.34,0000.80
2024-01-21 15:56:00,SystemResetWarning,0822.1,5.00,000.00,019.7,019.1,000.0,028.0,021.0,17.4,0000.0,0000.93,0001.43,0000.75
2024-01-21 15:57:00,SystemResetWarning,0822.1,5.00,000.00,019.7,019.1,000.0,028.1,021.0,17.4,0000.0,0000.87,0001.26,0000.72
2024-01-21 15:58:00,SystemResetWarning,0822.2,5.00,000.00,019.7,019.1,000.0,028.1,020.9,17.5,0000.0,0000.85,0001.20,0000.71
2024-01-21 15:59:00,SystemResetWarning,0822.2,4.99,000.00,019.7,019.1,000.0,028.1,020.9,17.4,0000.0,0000.84,0001.18,0000.68
